Year,Month,Day,Hour,Minute,Value (Times are PST for windgust in km/hr)
2015,09,15,00,00,3.20
2015,09,15,00,01,3.20
2015,09,15,00,02,3.20
2015,09,15,00,03,3.20
2015,09,15,00,04,3.20
2015,09,15,00,05,3.20
2015,09,15,00,06,3.20
2015,09,15,00,07,3.20
2015,09,15,00,08,3.20
2015,09,15,00,09,3.20
2015,09,15,00,10,3.20
2015,09,15,00,11,3.20
2015,09,15,00,12,3.20
2015,09,15,00,13,3.20
2015,09,15,00,14,1.60
2015,09,15,00,15,1.60
2015,09,15,00,16,1.60
2015,09,15,00,17,3.20
2015,09,15,00,18,3.20
2015,09,15,00,19,3.20
2015,09,15,00,20,3.20
2015,09,15,00,21,4.80
2015,09,15,00,22,3.20
2015,09,15,00,23,3.20
2015,09,15,00,24,3.20
2015,09,15,00,25,4.80
2015,09,15,00,26,1.60
2015,09,15,00,27,1.60
2015,09,15,00,28,3.20
2015,09,15,00,29,3.20
2015,09,15,00,30,3.20
2015,09,15,00,31,3.20
2015,09,15,00,32,3.20
2015,09,15,00,33,3.20
2015,09,15,00,34,1.60
2015,09,15,00,35,3.20
2015,09,15,00,36,4.80
2015,09,15,00,37,3.20
2015,09,15,00,38,3.20
2015,09,15,00,39,3.20
2015,09,15,00,40,3.20
2015,09,15,00,41,3.20
2015,09,15,00,42,3.20
2015,09,15,00,43,3.20
2015,09,15,00,44,3.20
2015,09,15,00,45,3.20
2015,09,15,00,46,4.80
2015,09,15,00,47,4.80
2015,09,15,00,48,3.20
2015,09,15,00,49,3.20
2015,09,15,00,50,3.20
2015,09,15,00,51,3.20
2015,09,15,00,52,3.20
2015,09,15,00,53,3.20
2015,09,15,00,54,3.20
2015,09,15,00,55,3.20
2015,09,15,00,56,3.20
2015,09,15,00,57,3.20
2015,09,15,00,58,4.80
2015,09,15,00,59,4.80
2015,09,15,01,00,4.80
2015,09,15,01,01,3.20
2015,09,15,01,02,3.20
2015,09,15,01,03,3.20
2015,09,15,01,04,3.20
2015,09,15,01,05,3.20
2015,09,15,01,06,3.20
2015,09,15,01,07,3.20
2015,09,15,01,08,3.20
2015,09,15,01,09,4.80
2015,09,15,01,10,3.20
2015,09,15,01,11,3.20
2015,09,15,01,12,4.80
2015,09,15,01,13,3.20
2015,09,15,01,14,3.20
2015,09,15,01,15,3.20
2015,09,15,01,16,3.20
2015,09,15,01,17,3.20
2015,09,15,01,18,3.20
2015,09,15,01,19,4.80
2015,09,15,01,20,4.80
2015,09,15,01,21,4.80
2015,09,15,01,22,3.20
2015,09,15,01,23,3.20
2015,09,15,01,24,3.20
2015,09,15,01,25,3.20
2015,09,15,01,26,3.20
2015,09,15,01,27,1.60
2015,09,15,01,28,3.20
2015,09,15,01,29,3.20
2015,09,15,01,30,4.80
2015,09,15,01,31,4.80
2015,09,15,01,32,4.80
2015,09,15,01,33,4.80
2015,09,15,01,34,4.80
2015,09,15,01,35,4.80
2015,09,15,01,36,4.80
2015,09,15,01,37,3.20
2015,09,15,01,38,4.80
2015,09,15,01,39,3.20
2015,09,15,01,40,4.80
2015,09,15,01,41,4.80
2015,09,15,01,42,4.80
2015,09,15,01,43,6.40
2015,09,15,01,44,4.80
2015,09,15,01,45,3.20
2015,09,15,01,46,3.20
2015,09,15,01,47,3.20
2015,09,15,01,48,1.60
2015,09,15,01,49,1.60
2015,09,15,01,50,1.60
2015,09,15,01,51,1.60
2015,09,15,01,52,3.20
2015,09,15,01,53,3.20
2015,09,15,01,54,4.80
2015,09,15,01,55,4.80
2015,09,15,01,56,4.80
2015,09,15,01,57,4.80
2015,09,15,01,58,4.80
2015,09,15,01,59,4.80
2015,09,15,02,00,3.20
2015,09,15,02,01,3.20
2015,09,15,02,02,4.80
2015,09,15,02,03,4.80
2015,09,15,02,04,4.80
2015,09,15,02,05,3.20
2015,09,15,02,06,3.20
2015,09,15,02,07,3.20
2015,09,15,02,09,1.60
2015,09,15,02,10,1.60
2015,09,15,02,11,1.60
2015,09,15,02,14,1.60
2015,09,15,02,15,3.20
2015,09,15,02,16,3.20
2015,09,15,02,17,3.20
2015,09,15,02,18,3.20
2015,09,15,02,19,3.20
2015,09,15,02,20,1.60
2015,09,15,02,21,1.60
2015,09,15,02,22,1.60
2015,09,15,02,23,1.60
2015,09,15,02,24,1.60
2015,09,15,02,29,1.60
2015,09,15,02,30,3.20
2015,09,15,02,31,3.20
2015,09,15,02,32,3.20
2015,09,15,02,33,1.60
2015,09,15,02,34,1.60
2015,09,15,02,35,1.60
2015,09,15,02,36,1.60
2015,09,15,02,37,1.60
2015,09,15,02,38,3.20
2015,09,15,02,39,3.20
2015,09,15,02,40,3.20
2015,09,15,02,41,3.20
2015,09,15,02,42,4.80
2015,09,15,02,43,3.20
2015,09,15,02,44,3.20
2015,09,15,02,45,3.20
2015,09,15,02,46,3.20
2015,09,15,02,47,3.20
2015,09,15,02,48,3.20
2015,09,15,02,49,1.60
2015,09,15,02,55,3.20
2015,09,15,02,56,3.20
2015,09,15,02,57,1.60
2015,09,15,02,58,1.60
2015,09,15,02,59,1.60
2015,09,15,03,07,1.60
2015,09,15,03,08,3.20
2015,09,15,03,09,3.20
2015,09,15,03,10,1.60
2015,09,15,03,11,1.60
2015,09,15,03,12,3.20
2015,09,15,03,13,4.80
2015,09,15,03,14,4.80
2015,09,15,03,15,4.80
2015,09,15,03,16,3.20
2015,09,15,03,17,4.80
2015,09,15,03,18,3.20
2015,09,15,03,19,3.20
2015,09,15,03,20,3.20
2015,09,15,03,21,1.60
2015,09,15,03,22,1.60
2015,09,15,03,23,1.60
2015,09,15,03,37,1.60
2015,09,15,03,41,1.60
2015,09,15,03,44,1.60
2015,09,15,03,45,1.60
2015,09,15,04,03,1.60
2015,09,15,04,04,1.60
2015,09,15,04,05,1.60
2015,09,15,04,06,1.60
2015,09,15,04,07,1.60
2015,09,15,04,08,1.60
2015,09,15,04,09,1.60
2015,09,15,04,22,1.60
2015,09,15,04,23,1.60
2015,09,15,04,24,1.60
2015,09,15,04,32,3.20
2015,09,15,04,33,3.20
2015,09,15,04,34,3.20
2015,09,15,04,35,3.20
2015,09,15,04,36,1.60
2015,09,15,04,37,1.60
2015,09,15,04,39,1.60
2015,09,15,04,40,1.60
2015,09,15,04,41,1.60
2015,09,15,04,42,1.60
2015,09,15,04,43,1.60
2015,09,15,04,44,1.60
2015,09,15,04,45,1.60
2015,09,15,04,46,3.20
2015,09,15,04,47,1.60
2015,09,15,04,48,3.20
2015,09,15,04,49,3.20
2015,09,15,04,50,3.20
2015,09,15,04,51,3.20
2015,09,15,04,52,1.60
2015,09,15,04,53,1.60
2015,09,15,05,02,1.60
2015,09,15,05,03,1.60
2015,09,15,05,04,1.60
2015,09,15,05,32,1.60
2015,09,15,05,33,1.60
2015,09,15,05,34,1.60
2015,09,15,05,36,1.60
2015,09,15,05,37,1.60
2015,09,15,05,38,1.60
2015,09,15,05,39,1.60
2015,09,15,05,43,1.60
2015,09,15,05,44,1.60
2015,09,15,05,47,1.60
2015,09,15,05,48,1.60
2015,09,15,05,49,3.20
2015,09,15,05,50,3.20
2015,09,15,05,52,1.60
2015,09,15,05,58,1.60
2015,09,15,05,59,3.20
2015,09,15,06,00,3.20
2015,09,15,06,01,3.20
2015,09,15,06,02,3.20
2015,09,15,06,03,3.20
2015,09,15,06,04,1.60
2015,09,15,06,05,1.60
2015,09,15,06,06,1.60
2015,09,15,06,07,1.60
2015,09,15,06,08,1.60
2015,09,15,06,09,3.20
2015,09,15,06,10,3.20
2015,09,15,06,11,1.60
2015,09,15,06,12,3.20
2015,09,15,06,13,4.80
2015,09,15,06,14,3.20
2015,09,15,06,15,3.20
2015,09,15,06,16,3.20
2015,09,15,06,18,1.60
2015,09,15,06,19,1.60
2015,09,15,06,23,1.60
2015,09,15,06,24,1.60
2015,09,15,06,25,1.60
2015,09,15,06,26,1.60
2015,09,15,06,34,1.60
2015,09,15,06,35,1.60
2015,09,15,06,36,1.60
2015,09,15,06,37,1.60
2015,09,15,06,38,1.60
2015,09,15,06,39,1.60
2015,09,15,06,40,1.60
2015,09,15,06,41,1.60
2015,09,15,06,42,1.60
2015,09,15,06,43,1.60
2015,09,15,06,46,1.60
2015,09,15,09,04,1.60
2015,09,15,09,05,4.80
2015,09,15,09,06,4.80
2015,09,15,09,07,6.40
2015,09,15,09,08,6.40
2015,09,15,09,09,6.40
2015,09,15,09,10,8.10
2015,09,15,09,11,6.40
2015,09,15,09,12,6.40
2015,09,15,09,13,6.40
2015,09,15,09,14,6.40
2015,09,15,09,15,4.80
2015,09,15,09,16,4.80
2015,09,15,09,17,6.40
2015,09,15,09,18,6.40
2015,09,15,09,19,8.10
2015,09,15,09,20,6.40
2015,09,15,09,21,6.40
2015,09,15,09,22,6.40
2015,09,15,09,23,4.80
2015,09,15,09,24,6.40
2015,09,15,09,25,6.40
2015,09,15,09,26,8.10
2015,09,15,09,27,6.40
2015,09,15,09,28,4.80
2015,09,15,09,29,4.80
2015,09,15,09,30,3.20
2015,09,15,09,31,6.40
2015,09,15,09,32,6.40
2015,09,15,09,33,3.20
2015,09,15,09,34,4.80
2015,09,15,09,35,4.80
2015,09,15,09,36,3.20
2015,09,15,09,37,4.80
2015,09,15,09,38,3.20
2015,09,15,09,39,4.80
2015,09,15,09,40,4.80
2015,09,15,09,41,4.80
2015,09,15,09,42,6.40
2015,09,15,09,43,6.40
2015,09,15,09,44,6.40
2015,09,15,09,45,4.80
2015,09,15,09,46,4.80
2015,09,15,09,47,6.40
2015,09,15,09,48,8.10
2015,09,15,09,49,6.40
2015,09,15,09,50,6.40
2015,09,15,09,51,8.10
2015,09,15,09,52,4.80
2015,09,15,09,53,4.80
2015,09,15,09,54,6.40
2015,09,15,09,55,6.40
2015,09,15,09,56,6.40
2015,09,15,09,57,8.10
2015,09,15,09,58,8.10
2015,09,15,09,59,8.10
2015,09,15,10,00,6.40
2015,09,15,10,01,4.80
2015,09,15,10,02,3.20
2015,09,15,10,03,3.20
2015,09,15,10,04,4.80
2015,09,15,10,05,6.40
2015,09,15,10,06,8.10
2015,09,15,10,07,9.60
2015,09,15,10,08,8.10
2015,09,15,10,09,4.80
2015,09,15,10,10,6.40
2015,09,15,10,11,8.10
2015,09,15,10,12,4.80
2015,09,15,10,13,6.40
2015,09,15,10,14,9.60
2015,09,15,10,15,8.10
2015,09,15,10,16,6.40
2015,09,15,10,17,4.80
2015,09,15,10,18,6.40
2015,09,15,10,19,6.40
2015,09,15,10,20,6.40
2015,09,15,10,21,9.60
2015,09,15,10,22,8.10
2015,09,15,10,23,6.40
2015,09,15,10,24,9.60
2015,09,15,10,25,6.40
2015,09,15,10,26,8.10
2015,09,15,10,27,4.80
2015,09,15,10,28,8.10
2015,09,15,10,29,8.10
2015,09,15,10,30,6.40
2015,09,15,10,31,14.50
2015,09,15,10,32,8.10
2015,09,15,10,33,9.60
2015,09,15,10,34,11.30
2015,09,15,10,35,9.60
2015,09,15,10,36,16.10
2015,09,15,10,37,12.90
2015,09,15,10,38,9.60
2015,09,15,10,39,9.60
2015,09,15,10,40,8.10
2015,09,15,10,41,9.60
2015,09,15,10,42,8.10
2015,09,15,10,43,9.60
2015,09,15,10,44,11.30
2015,09,15,10,45,6.40
2015,09,15,10,46,11.30
2015,09,15,10,47,11.30
2015,09,15,10,48,6.40
2015,09,15,10,49,8.10
2015,09,15,10,50,8.10
2015,09,15,10,51,11.30
2015,09,15,10,52,11.30
2015,09,15,10,53,8.10
2015,09,15,10,54,8.10
2015,09,15,10,55,8.10
2015,09,15,10,56,8.10
2015,09,15,10,57,8.10
2015,09,15,10,58,8.10
2015,09,15,10,59,11.30
2015,09,15,11,00,11.30
2015,09,15,11,01,9.60
2015,09,15,11,02,11.30
2015,09,15,11,03,6.40
2015,09,15,11,04,4.80
2015,09,15,11,05,6.40
2015,09,15,11,06,9.60
2015,09,15,11,07,6.40
2015,09,15,11,08,9.60
2015,09,15,11,09,12.90
2015,09,15,11,10,6.40
2015,09,15,11,11,6.40
2015,09,15,11,12,6.40
2015,09,15,11,13,11.30
2015,09,15,11,14,6.40
2015,09,15,11,15,9.60
2015,09,15,11,16,9.60
2015,09,15,11,17,8.10
2015,09,15,11,18,8.10
2015,09,15,11,19,6.40
2015,09,15,11,20,8.10
2015,09,15,11,21,11.30
2015,09,15,11,22,8.10
2015,09,15,11,23,9.60
2015,09,15,11,24,16.10
2015,09,15,11,25,11.30
2015,09,15,11,26,14.50
2015,09,15,11,27,8.10
2015,09,15,11,28,9.60
2015,09,15,11,29,8.10
2015,09,15,11,30,11.30
2015,09,15,11,31,16.10
2015,09,15,11,32,9.60
2015,09,15,11,33,11.30
2015,09,15,11,34,16.10
2015,09,15,11,35,17.70
2015,09,15,11,36,17.70
2015,09,15,11,37,11.30
2015,09,15,11,38,11.30
2015,09,15,11,39,8.10
2015,09,15,11,40,11.30
2015,09,15,11,41,6.40
2015,09,15,11,42,11.30
2015,09,15,11,43,11.30
2015,09,15,11,44,14.50
2015,09,15,11,45,9.60
2015,09,15,11,46,9.60
2015,09,15,11,47,8.10
2015,09,15,11,48,8.10
2015,09,15,11,49,16.10
2015,09,15,11,50,11.30
2015,09,15,11,51,17.70
2015,09,15,11,52,14.50
2015,09,15,11,53,9.60
2015,09,15,11,54,14.50
2015,09,15,11,55,20.90
2015,09,15,11,56,19.30
2015,09,15,11,57,16.10
2015,09,15,11,58,17.70
2015,09,15,11,59,19.30
2015,09,15,12,00,16.10
2015,09,15,12,01,17.70
2015,09,15,12,02,11.30
2015,09,15,12,03,16.10
2015,09,15,12,04,16.10
2015,09,15,12,05,16.10
2015,09,15,12,06,17.70
2015,09,15,12,07,11.30
2015,09,15,12,08,14.50
2015,09,15,12,09,17.70
2015,09,15,12,10,17.70
2015,09,15,12,11,9.60
2015,09,15,12,12,16.10
2015,09,15,12,13,9.60
2015,09,15,12,14,9.60
2015,09,15,12,15,17.70
2015,09,15,12,16,14.50
2015,09,15,12,17,20.90
2015,09,15,12,18,16.10
2015,09,15,12,19,11.30
2015,09,15,12,20,11.30
2015,09,15,12,21,11.30
2015,09,15,12,22,9.60
2015,09,15,12,23,6.40
2015,09,15,12,24,9.60
2015,09,15,12,25,14.50
2015,09,15,12,26,17.70
2015,09,15,12,27,17.70
2015,09,15,12,28,9.60
2015,09,15,12,29,17.70
2015,09,15,12,30,17.70
2015,09,15,12,31,17.70
2015,09,15,12,32,12.90
2015,09,15,12,33,14.50
2015,09,15,12,34,11.30
2015,09,15,12,35,8.10
2015,09,15,12,36,9.60
2015,09,15,12,37,19.30
2015,09,15,12,38,17.70
2015,09,15,12,39,11.30
2015,09,15,12,40,14.50
2015,09,15,12,41,20.90
2015,09,15,12,42,20.90
2015,09,15,12,43,19.30
2015,09,15,12,44,14.50
2015,09,15,12,45,12.90
2015,09,15,12,46,16.10
2015,09,15,12,47,9.60
2015,09,15,12,48,17.70
2015,09,15,12,49,17.70
2015,09,15,12,50,16.10
2015,09,15,12,51,19.30
2015,09,15,12,52,20.90
2015,09,15,12,53,9.60
2015,09,15,12,54,20.90
2015,09,15,12,55,19.30
2015,09,15,12,56,14.50
2015,09,15,12,57,8.10
2015,09,15,12,58,9.60
2015,09,15,12,59,11.30
2015,09,15,13,00,9.60
2015,09,15,13,01,12.90
2015,09,15,13,02,11.30
2015,09,15,13,03,16.10
2015,09,15,13,04,8.10
2015,09,15,13,05,8.10
2015,09,15,13,06,14.50
2015,09,15,13,07,11.30
2015,09,15,13,08,14.50
2015,09,15,13,09,14.50
2015,09,15,13,10,9.60
2015,09,15,13,11,11.30
2015,09,15,13,12,17.70
2015,09,15,13,13,9.60
2015,09,15,13,14,11.30
2015,09,15,13,15,9.60
2015,09,15,13,16,11.30
2015,09,15,13,17,9.60
2015,09,15,13,18,17.70
2015,09,15,13,19,14.50
2015,09,15,13,20,11.30
2015,09,15,13,21,9.60
2015,09,15,13,22,11.30
2015,09,15,13,23,8.10
2015,09,15,13,24,17.70
2015,09,15,13,25,16.10
2015,09,15,13,26,16.10
2015,09,15,13,27,12.90
2015,09,15,13,28,17.70
2015,09,15,13,29,19.30
2015,09,15,13,30,19.30
2015,09,15,13,31,12.90
2015,09,15,13,32,17.70
2015,09,15,13,33,17.70
2015,09,15,13,34,17.70
2015,09,15,13,35,9.60
2015,09,15,13,36,11.30
2015,09,15,13,37,9.60
2015,09,15,13,38,16.10
2015,09,15,13,39,9.60
2015,09,15,13,40,8.10
2015,09,15,13,41,14.50
2015,09,15,13,42,19.30
2015,09,15,13,43,16.10
2015,09,15,13,44,14.50
2015,09,15,13,45,9.60
2015,09,15,13,46,9.60
2015,09,15,13,47,11.30
2015,09,15,13,48,14.50
2015,09,15,13,49,11.30
2015,09,15,13,50,16.10
2015,09,15,13,51,11.30
2015,09,15,13,52,9.60
2015,09,15,13,53,12.90
2015,09,15,13,54,11.30
2015,09,15,13,55,14.50
2015,09,15,13,56,11.30
2015,09,15,13,57,9.60
2015,09,15,13,58,16.10
2015,09,15,13,59,9.60
2015,09,15,14,00,16.10
2015,09,15,14,01,19.30
2015,09,15,14,02,20.90
2015,09,15,14,03,20.90
2015,09,15,14,04,9.60
2015,09,15,14,05,9.60
2015,09,15,14,06,8.10
2015,09,15,14,07,11.30
2015,09,15,14,08,14.50
2015,09,15,14,09,16.10
2015,09,15,14,10,11.30
2015,09,15,14,11,14.50
2015,09,15,14,12,14.50
2015,09,15,14,13,11.30
2015,09,15,14,14,14.50
2015,09,15,14,15,16.10
2015,09,15,14,16,14.50
2015,09,15,14,17,11.30
2015,09,15,14,18,14.50
2015,09,15,14,19,11.30
2015,09,15,14,20,22.50
2015,09,15,14,21,16.10
2015,09,15,14,22,19.30
2015,09,15,14,23,17.70
2015,09,15,14,24,16.10
2015,09,15,14,25,17.70
2015,09,15,14,26,19.30
2015,09,15,14,27,22.50
2015,09,15,14,28,19.30
2015,09,15,14,29,17.70
2015,09,15,14,30,24.20
2015,09,15,14,31,17.70
2015,09,15,14,32,19.30
2015,09,15,14,33,16.10
2015,09,15,14,34,17.70
2015,09,15,14,35,17.70
2015,09,15,14,36,16.10
2015,09,15,14,37,12.90
2015,09,15,14,38,17.70
2015,09,15,14,39,12.90
2015,09,15,14,40,11.30
2015,09,15,14,41,14.50
2015,09,15,14,42,14.50
2015,09,15,14,43,16.10
2015,09,15,14,44,8.10
2015,09,15,14,45,11.30
2015,09,15,14,46,11.30
2015,09,15,14,47,16.10
2015,09,15,14,48,11.30
2015,09,15,14,49,12.90
2015,09,15,14,50,14.50
2015,09,15,14,51,17.70
2015,09,15,14,52,9.60
2015,09,15,14,53,19.30
2015,09,15,14,54,17.70
2015,09,15,14,55,14.50
2015,09,15,14,56,14.50
2015,09,15,14,57,12.90
2015,09,15,14,58,9.60
2015,09,15,14,59,16.10
2015,09,15,15,00,11.30
2015,09,15,15,01,9.60
2015,09,15,15,02,11.30
2015,09,15,15,03,17.70
2015,09,15,15,04,11.30
2015,09,15,15,05,9.60
2015,09,15,15,06,9.60
2015,09,15,15,07,9.60
2015,09,15,15,08,11.30
2015,09,15,15,09,6.40
2015,09,15,15,10,8.10
2015,09,15,15,11,14.50
2015,09,15,15,12,9.60
2015,09,15,15,13,11.30
2015,09,15,15,14,16.10
2015,09,15,15,15,20.90
2015,09,15,15,16,16.10
2015,09,15,15,17,12.90
2015,09,15,15,18,19.30
2015,09,15,15,19,19.30
2015,09,15,15,20,16.10
2015,09,15,15,21,14.50
2015,09,15,15,22,17.70
2015,09,15,15,23,20.90
2015,09,15,15,24,17.70
2015,09,15,15,25,12.90
2015,09,15,15,26,17.70
2015,09,15,15,27,16.10
2015,09,15,15,28,11.30
2015,09,15,15,29,19.30
2015,09,15,15,30,16.10
2015,09,15,15,31,11.30
2015,09,15,15,32,11.30
2015,09,15,15,33,17.70
2015,09,15,15,34,17.70
2015,09,15,15,35,16.10
2015,09,15,15,36,19.30
2015,09,15,15,37,20.90
2015,09,15,15,38,19.30
2015,09,15,15,39,11.30
2015,09,15,15,40,14.50
2015,09,15,15,41,24.20
2015,09,15,15,42,19.30
2015,09,15,15,43,14.50
2015,09,15,15,44,17.70
2015,09,15,15,45,17.70
2015,09,15,15,46,22.50
2015,09,15,15,47,8.10
2015,09,15,15,48,22.50
2015,09,15,15,49,11.30
2015,09,15,15,50,16.10
2015,09,15,15,51,8.10
2015,09,15,15,52,19.30
2015,09,15,15,53,16.10
2015,09,15,15,54,16.10
2015,09,15,15,55,16.10
2015,09,15,15,56,9.60
2015,09,15,15,57,11.30
2015,09,15,15,58,16.10
2015,09,15,15,59,14.50
2015,09,15,16,00,20.90
2015,09,15,16,01,17.70
2015,09,15,16,02,20.90
2015,09,15,16,03,19.30
2015,09,15,16,04,14.50
2015,09,15,16,05,14.50
2015,09,15,16,06,11.30
2015,09,15,16,07,16.10
2015,09,15,16,08,14.50
2015,09,15,16,09,17.70
2015,09,15,16,10,9.60
2015,09,15,16,11,16.10
2015,09,15,16,12,12.90
2015,09,15,16,13,11.30
2015,09,15,16,14,17.70
2015,09,15,16,15,14.50
2015,09,15,16,16,14.50
2015,09,15,16,17,16.10
2015,09,15,16,18,11.30
2015,09,15,16,19,12.90
2015,09,15,16,20,17.70
2015,09,15,16,21,17.70
2015,09,15,16,22,22.50
2015,09,15,16,23,12.90
2015,09,15,16,24,12.90
2015,09,15,16,25,17.70
2015,09,15,16,26,19.30
2015,09,15,16,27,19.30
2015,09,15,16,28,17.70
2015,09,15,16,29,16.10
2015,09,15,16,30,11.30
2015,09,15,16,31,16.10
2015,09,15,16,32,14.50
2015,09,15,16,33,9.60
2015,09,15,16,34,11.30
2015,09,15,16,35,17.70
2015,09,15,16,36,12.90
2015,09,15,16,37,11.30
2015,09,15,16,38,16.10
2015,09,15,16,39,8.10
2015,09,15,16,40,8.10
2015,09,15,16,41,11.30
2015,09,15,16,42,9.60
2015,09,15,16,43,14.50
2015,09,15,16,44,17.70
2015,09,15,16,45,11.30
2015,09,15,16,46,8.10
2015,09,15,16,47,11.30
2015,09,15,16,48,11.30
2015,09,15,16,49,16.10
2015,09,15,16,50,16.10
2015,09,15,16,51,16.10
2015,09,15,16,52,19.30
2015,09,15,16,53,12.90
2015,09,15,16,54,8.10
2015,09,15,16,55,14.50
2015,09,15,16,56,14.50
2015,09,15,16,57,16.10
2015,09,15,16,58,12.90
2015,09,15,16,59,17.70
2015,09,15,17,00,9.60
2015,09,15,17,01,8.10
2015,09,15,17,02,9.60
2015,09,15,17,03,8.10
2015,09,15,17,04,8.10
2015,09,15,17,05,9.60
2015,09,15,17,06,8.10
2015,09,15,17,07,14.50
2015,09,15,17,08,9.60
2015,09,15,17,09,9.60
2015,09,15,17,10,9.60
2015,09,15,17,11,8.10
2015,09,15,17,12,14.50
2015,09,15,17,13,4.80
2015,09,15,17,14,6.40
2015,09,15,17,15,9.60
2015,09,15,17,16,9.60
2015,09,15,17,17,6.40
2015,09,15,17,18,6.40
2015,09,15,17,19,6.40
2015,09,15,17,20,12.90
2015,09,15,17,21,11.30
2015,09,15,17,22,6.40
2015,09,15,17,23,11.30
2015,09,15,17,24,11.30
2015,09,15,17,25,8.10
2015,09,15,17,26,8.10
2015,09,15,17,27,11.30
2015,09,15,17,28,14.50
2015,09,15,17,29,9.60
2015,09,15,17,30,9.60
2015,09,15,17,31,9.60
2015,09,15,17,32,14.50
2015,09,15,17,33,8.10
2015,09,15,17,34,11.30
2015,09,15,17,35,11.30
2015,09,15,17,36,14.50
2015,09,15,17,37,9.60
2015,09,15,17,38,14.50
2015,09,15,17,39,9.60
2015,09,15,17,40,11.30
2015,09,15,17,41,14.50
2015,09,15,17,42,11.30
2015,09,15,17,43,9.60
2015,09,15,17,44,9.60
2015,09,15,17,45,8.10
2015,09,15,17,46,8.10
2015,09,15,17,47,6.40
2015,09,15,17,48,11.30
2015,09,15,17,49,16.10
2015,09,15,17,50,8.10
2015,09,15,17,51,14.50
2015,09,15,17,52,8.10
2015,09,15,17,53,9.60
2015,09,15,17,54,8.10
2015,09,15,17,55,16.10
2015,09,15,17,56,8.10
2015,09,15,17,57,9.60
2015,09,15,17,58,6.40
2015,09,15,17,59,6.40
2015,09,15,18,00,11.30
2015,09,15,18,01,11.30
2015,09,15,18,02,11.30
2015,09,15,18,03,9.60
2015,09,15,18,04,8.10
2015,09,15,18,05,9.60
2015,09,15,18,06,11.30
2015,09,15,18,07,9.60
2015,09,15,18,08,9.60
2015,09,15,18,09,9.60
2015,09,15,18,10,14.50
2015,09,15,18,11,9.60
2015,09,15,18,12,8.10
2015,09,15,18,13,9.60
2015,09,15,18,14,11.30
2015,09,15,18,15,9.60
2015,09,15,18,16,9.60
2015,09,15,18,17,9.60
2015,09,15,18,18,9.60
2015,09,15,18,19,11.30
2015,09,15,18,20,11.30
2015,09,15,18,21,12.90
2015,09,15,18,22,8.10
2015,09,15,18,23,8.10
2015,09,15,18,24,8.10
2015,09,15,18,25,6.40
2015,09,15,18,26,8.10
2015,09,15,18,27,9.60
2015,09,15,18,28,9.60
2015,09,15,18,29,6.40
2015,09,15,18,30,8.10
2015,09,15,18,31,8.10
2015,09,15,18,32,4.80
2015,09,15,18,33,4.80
2015,09,15,18,34,4.80
2015,09,15,18,35,4.80
2015,09,15,18,36,3.20
2015,09,15,18,37,4.80
2015,09,15,18,38,3.20
2015,09,15,18,39,8.10
2015,09,15,18,40,4.80
2015,09,15,18,41,6.40
2015,09,15,18,42,6.40
2015,09,15,18,43,6.40
2015,09,15,18,44,4.80
2015,09,15,18,45,8.10
2015,09,15,18,46,8.10
2015,09,15,18,47,9.60
2015,09,15,18,48,9.60
2015,09,15,18,49,4.80
2015,09,15,18,50,8.10
2015,09,15,18,51,6.40
2015,09,15,18,52,6.40
2015,09,15,18,53,6.40
2015,09,15,18,54,4.80
2015,09,15,18,55,6.40
2015,09,15,18,56,9.60
2015,09,15,18,57,11.30
2015,09,15,18,58,6.40
2015,09,15,18,59,6.40
2015,09,15,19,00,4.80
2015,09,15,19,01,3.20
2015,09,15,19,02,1.60
2015,09,15,19,03,4.80
2015,09,15,19,04,4.80
2015,09,15,19,05,8.10
2015,09,15,19,06,8.10
2015,09,15,19,07,6.40
2015,09,15,19,08,6.40
2015,09,15,19,09,6.40
2015,09,15,19,10,6.40
2015,09,15,19,11,6.40
2015,09,15,19,12,4.80
2015,09,15,19,13,4.80
2015,09,15,19,14,8.10
2015,09,15,19,15,8.10
2015,09,15,19,16,9.60
2015,09,15,19,17,6.40
2015,09,15,19,18,6.40
2015,09,15,19,19,4.80
2015,09,15,19,20,4.80
2015,09,15,19,21,4.80
2015,09,15,19,22,4.80
2015,09,15,19,23,3.20
2015,09,15,19,24,4.80
2015,09,15,19,25,1.60
2015,09,15,19,27,1.60
2015,09,15,19,30,1.60
2015,09,15,19,31,1.60
2015,09,15,19,32,3.20
2015,09,15,19,33,3.20
2015,09,15,19,34,1.60
2015,09,15,19,35,1.60
2015,09,15,19,36,3.20
2015,09,15,19,37,4.80
2015,09,15,19,38,4.80
2015,09,15,19,39,6.40
2015,09,15,19,40,4.80
2015,09,15,19,41,6.40
2015,09,15,19,42,4.80
2015,09,15,19,43,3.20
2015,09,15,19,44,4.80
2015,09,15,19,45,3.20
2015,09,15,19,46,6.40
2015,09,15,19,47,4.80
2015,09,15,19,48,4.80
2015,09,15,19,49,3.20
2015,09,15,19,50,4.80
2015,09,15,19,51,3.20
2015,09,15,19,52,1.60
2015,09,15,19,54,1.60
2015,09,15,19,55,4.80
2015,09,15,19,56,4.80
2015,09,15,19,57,4.80
2015,09,15,19,58,4.80
2015,09,15,19,59,3.20
2015,09,15,20,08,1.60
2015,09,15,20,09,1.60
2015,09,15,20,11,1.60
2015,09,15,20,12,1.60
2015,09,15,20,18,3.20
2015,09,15,20,19,3.20
2015,09,15,20,20,3.20
2015,09,15,20,21,1.60
2015,09,15,20,22,3.20
2015,09,15,20,39,1.60
2015,09,15,20,40,3.20
2015,09,15,20,41,1.60
2015,09,15,20,42,3.20
2015,09,15,20,43,1.60
2015,09,15,20,44,1.60
2015,09,15,20,58,1.60
2015,09,15,20,59,3.20
2015,09,15,21,00,1.60
2015,09,15,21,01,1.60
2015,09,15,21,02,3.20
2015,09,15,21,03,1.60
2015,09,15,21,04,1.60
2015,09,15,21,05,1.60
2015,09,15,21,06,1.60
2015,09,15,21,07,1.60
2015,09,15,21,08,3.20
2015,09,15,21,09,4.80
2015,09,15,21,10,4.80
2015,09,15,21,11,6.40
2015,09,15,21,12,4.80
2015,09,15,21,13,4.80
2015,09,15,21,14,4.80
2015,09,15,21,15,4.80
2015,09,15,21,16,3.20
2015,09,15,21,17,3.20
2015,09,15,21,18,4.80
2015,09,15,21,19,3.20
2015,09,15,21,20,4.80
2015,09,15,21,21,4.80
2015,09,15,21,22,4.80
2015,09,15,21,23,3.20
2015,09,15,21,24,3.20
2015,09,15,21,25,3.20
2015,09,15,21,26,1.60
2015,09,15,21,27,1.60
2015,09,15,21,28,3.20
2015,09,15,21,29,3.20
2015,09,15,21,30,3.20
2015,09,15,21,31,1.60
2015,09,15,21,33,3.20
2015,09,15,21,34,4.80
2015,09,15,21,35,1.60
2015,09,15,21,38,1.60
2015,09,15,21,39,1.60
2015,09,15,21,44,3.20
2015,09,15,21,45,3.20
2015,09,15,21,46,1.60
2015,09,15,21,48,1.60
2015,09,15,21,49,1.60
2015,09,15,21,50,1.60
2015,09,15,21,51,1.60
2015,09,15,21,52,1.60
2015,09,15,22,22,1.60
2015,09,15,22,23,1.60
2015,09,15,22,24,1.60
2015,09,15,22,25,1.60
2015,09,15,22,27,1.60
2015,09,15,22,30,1.60
2015,09,15,22,31,1.60
2015,09,15,22,33,3.20
2015,09,15,22,34,3.20
2015,09,15,22,35,3.20
2015,09,15,22,36,3.20
2015,09,15,22,37,1.60
2015,09,15,22,38,4.80
2015,09,15,22,39,3.20
2015,09,15,22,40,3.20
2015,09,15,22,41,3.20
2015,09,15,22,42,1.60
2015,09,15,22,43,4.80
2015,09,15,22,44,4.80
2015,09,15,22,45,3.20
2015,09,15,22,46,3.20
2015,09,15,22,47,3.20
2015,09,15,22,48,3.20
2015,09,15,22,49,3.20
2015,09,15,22,50,3.20
2015,09,15,22,51,3.20
2015,09,15,22,52,4.80
2015,09,15,22,53,4.80
2015,09,15,22,54,3.20
2015,09,15,22,55,3.20
2015,09,15,22,56,1.60
2015,09,15,22,57,3.20
2015,09,15,22,58,1.60
2015,09,15,22,59,1.60
2015,09,15,23,00,3.20
2015,09,15,23,01,1.60
2015,09,15,23,02,1.60
2015,09,15,23,03,1.60
2015,09,15,23,04,1.60
2015,09,15,23,07,1.60
2015,09,15,23,08,1.60
2015,09,15,23,10,1.60
2015,09,15,23,12,1.60
2015,09,15,23,13,1.60
2015,09,15,23,14,1.60
2015,09,15,23,15,3.20
2015,09,15,23,16,3.20
2015,09,15,23,17,1.60
2015,09,15,23,18,1.60
2015,09,15,23,19,3.20
2015,09,15,23,20,3.20
2015,09,15,23,21,3.20
2015,09,15,23,22,3.20
2015,09,15,23,23,3.20
2015,09,15,23,24,4.80
2015,09,15,23,25,4.80
2015,09,15,23,26,3.20
2015,09,15,23,27,4.80
2015,09,15,23,28,3.20
2015,09,15,23,29,3.20
2015,09,15,23,30,3.20
2015,09,15,23,31,4.80
2015,09,15,23,32,3.20
2015,09,15,23,33,3.20
2015,09,15,23,34,3.20
2015,09,15,23,35,3.20
2015,09,15,23,36,3.20
2015,09,15,23,37,3.20
2015,09,15,23,38,3.20
2015,09,15,23,39,4.80
2015,09,15,23,40,4.80
2015,09,15,23,41,4.80
2015,09,15,23,42,4.80
2015,09,15,23,43,4.80
2015,09,15,23,44,3.20
2015,09,15,23,45,3.20
2015,09,15,23,46,3.20
2015,09,15,23,47,3.20
2015,09,15,23,48,3.20
2015,09,15,23,49,1.60
2015,09,15,23,50,3.20
2015,09,15,23,51,3.20
2015,09,15,23,52,4.80
2015,09,15,23,53,4.80
2015,09,15,23,54,3.20
2015,09,15,23,55,4.80